"Sample Date","Sample Time","Sample Value","Units","Flow Rate","Sample Interval","Number Channels","Micron Size 0","Counts/Channel 0","Micron Size 1","Counts/Channel 1","Micron Size 2","Counts/Channel 2","Micron Size 3","Counts/Channel 3","Micron Size 4","Counts/Channel 4","Micron Size 5","Counts/Channel 5","Micron Size 6","Counts/Channel 6","Micron Size 7","Counts/Channel 7","Micron Size 8","Counts/Channel 8","Micron Size 9","Counts/Channel 9","Micron Size 10","Counts/Channel 10","Micron Size 11","Counts/Channel 11","Micron Size 12","Counts/Channel 12","Micron Size 13","Counts/Channel 13","Micron Size 14","Counts/Channel 14","Micron Size 15","Counts/Channel 15","Micron Size 16","Counts/Channel 16","Micron Size 17","Counts/Channel 17","Micron Size 18","Counts/Channel 18","Micron Size 19","Counts/Channel 19","Micron Size 20","Counts/Channel 20","Micron Size 21","Counts/Channel 21","Micron Size 22","Counts/Channel 22","Micron Size 23","Counts/Channel 23","Micron Size 24","Counts/Channel 24","Micron Size 25","Counts/Channel 25","Micron Size 26","Counts/Channel 26","Micron Size 27","Counts/Channel 27","Micron Size 28","Counts/Channel 28","Micron Size 29","Counts/Channel 29","Micron Size 30","Counts/Channel 30","Micron Size 31","Counts/Channel 31"
"03/07/08","04:00:02",15246.000,"cc",28334.428,6.00,6,0.100,13989.000,0.200,899.000,0.300,249.000,0.500,101.000,1.000,8.000,5.000,0
"03/07/08","04:00:08",15284.000,"cc",28289.100,6.00,6,0.100,13984.000,0.200,914.000,0.300,266.000,0.500,113.000,1.000,7.000,5.000,0
"03/07/08","04:00:14",15261.000,"cc",28222.203,6.00,6,0.100,13918.000,0.200,894.000,0.300,287.000,0.500,144.000,1.000,18.000,5.000,0
"03/07/08","04:00:20",15409.000,"cc",28376.143,6.00,6,0.100,14038.000,0.200,908.000,0.300,318.000,0.500,132.000,1.000,13.000,5.000,0
"03/07/08","04:00:26",15176.000,"cc",28395.190,6.00,6,0.100,13945.000,0.200,895.000,0.300,228.000,0.500,98.000,1.000,10.000,5.000,0
"03/07/08","04:00:32",15176.000,"cc",28304.379,6.00,6,0.100,13867.000,0.200,884.000,0.300,299.000,0.500,117.000,1.000,9.000,5.000,0
"03/07/08","04:00:38",15111.000,"cc",28250.045,6.00,6,0.100,13880.000,0.200,862.000,0.300,266.000,0.500,98.000,1.000,5.000,5.000,0
"03/07/08","04:00:44",15323.000,"cc",28343.373,6.00,6,0.100,14057.000,0.200,870.000,0.300,285.000,0.500,107.000,1.000,4.000,5.000,0
"03/07/08","04:00:50",15114.000,"cc",28355.867,6.00,6,0.100,13883.000,0.200,873.000,0.300,249.000,0.500,102.000,1.000,7.000,5.000,0
"03/07/08","04:00:56",14914.000,"cc",28319.522,6.00,6,0.100,13737.000,0.200,807.000,0.300,239.000,0.500,120.000,1.000,11.000,5.000,0
"03/07/08","04:01:02",15410.000,"cc",28313.340,6.00,6,0.100,14164.000,0.200,851.000,0.300,282.000,0.500,108.000,1.000,5.000,5.000,0
"03/07/08","04:01:08",15119.000,"cc",28246.943,6.00,6,0.100,13840.000,0.200,915.000,0.300,243.000,0.500,115.000,1.000,6.000,5.000,0
"03/07/08","04:01:14",15500.000,"cc",28292.254,6.00,6,0.100,14202.000,0.200,900.000,0.300,266.000,0.500,119.000,1.000,13.000,5.000,0
"03/07/08","04:01:20",15057.000,"cc",28324.938,6.00,6,0.100,13778.000,0.200,882.000,0.300,255.000,0.500,129.000,1.000,13.000,5.000,0
"03/07/08","04:01:26",15058.000,"cc",28393.553,6.00,6,0.100,13755.000,0.200,897.000,0.300,255.000,0.500,139.000,1.000,12.000,5.000,0
"03/07/08","04:01:32",15198.000,"cc",28334.539,6.00,6,0.100,13922.000,0.200,884.000,0.300,260.000,0.500,125.000,1.000,7.000,5.000,0
"03/07/08","04:01:38",15049.000,"cc",28300.984,6.00,6,0.100,13810.000,0.200,878.000,0.300,259.000,0.500,97.000,1.000,5.000,5.000,0
"03/07/08","04:01:44",15229.000,"cc",28323.318,6.00,6,0.100,13993.000,0.200,885.000,0.300,247.000,0.500,102.000,1.000,2.000,5.000,0
"03/07/08","04:01:50",15140.000,"cc",28295.926,6.00,6,0.100,13906.000,0.200,862.000,0.300,250.000,0.500,112.000,1.000,10.000,5.000,0
"03/07/08","04:01:56",15149.000,"cc",28375.213,6.00,6,0.100,13860.000,0.200,883.000,0.300,255.000,0.500,137.000,1.000,14.000,5.000,0
"03/07/08","04:02:02",14956.000,"cc",28318.190,6.00,6,0.100,13756.000,0.200,847.000,0.300,225.000,0.500,119.000,1.000,9.000,5.000,0
"03/07/08","04:02:08",15086.000,"cc",28336.709,6.00,6,0.100,13906.000,0.200,838.000,0.300,230.000,0.500,106.000,1.000,6.000,5.000,0
"03/07/08","04:02:14",14898.000,"cc",28282.059,6.00,6,0.100,13821.000,0.200,773.000,0.300,202.000,0.500,95.000,1.000,7.000,5.000,0
"03/07/08","04:02:20",15118.000,"cc",28383.824,6.00,6,0.100,13934.000,0.200,834.000,0.300,233.000,0.500,109.000,1.000,8.000,5.000,0
"03/07/08","04:02:26",15019.000,"cc",28356.635,6.00,6,0.100,13857.000,0.200,843.000,0.300,209.000,0.500,99.000,1.000,11.000,5.000,0
"03/07/08","04:02:32",14832.000,"cc",28279.354,6.00,6,0.100,13708.000,0.200,838.000,0.300,224.000,0.500,58.000,1.000,4.000,5.000,0
"03/07/08","04:02:38",14939.000,"cc",28294.588,6.00,6,0.100,13808.000,0.200,815.000,0.300,210.000,0.500,99.000,1.000,7.000,5.000,0
"03/07/08","04:02:44",14770.000,"cc",28287.094,6.00,6,0.100,13665.000,0.200,791.000,0.300,219.000,0.500,92.000,1.000,3.000,5.000,0
"03/07/08","04:02:50",14864.000,"cc",28302.535,6.00,6,0.100,13708.000,0.200,806.000,0.300,218.000,0.500,120.000,1.000,12.000,5.000,0
"03/07/08","04:02:56",14914.000,"cc",28307.383,6.00,6,0.100,13732.000,0.200,812.000,0.300,240.000,0.500,116.000,1.000,14.000,5.000,0
"03/07/08","04:03:02",15081.000,"cc",28347.615,6.00,6,0.100,13872.000,0.200,812.000,0.300,256.000,0.500,126.000,1.000,15.000,5.000,0
"03/07/08","04:03:08",15093.000,"cc",28334.018,6.00,6,0.100,13882.000,0.200,844.000,0.300,258.000,0.500,99.000,1.000,10.000,5.000,0
"03/07/08","04:03:14",14790.000,"cc",28315.199,6.00,6,0.100,13670.000,0.200,801.000,0.300,218.000,0.500,97.000,1.000,4.000,5.000,0
"03/07/08","04:03:20",15058.000,"cc",28378.836,6.00,6,0.100,13790.000,0.200,907.000,0.300,215.000,0.500,131.000,1.000,15.000,5.000,0
"03/07/08","04:03:26",14965.000,"cc",28307.731,6.00,6,0.100,13754.000,0.200,873.000,0.300,244.000,0.500,86.000,1.000,8.000,5.000,0
"03/07/08","04:03:32",14856.000,"cc",28289.275,6.00,6,0.100,13662.000,0.200,866.000,0.300,220.000,0.500,103.000,1.000,5.000,5.000,0
"03/07/08","04:03:38",14976.000,"cc",28335.213,6.00,6,0.100,13788.000,0.200,822.000,0.300,244.000,0.500,115.000,1.000,7.000,5.000,0
"03/07/08","04:03:44",14902.000,"cc",28312.576,6.00,6,0.100,13751.000,0.200,827.000,0.300,214.000,0.500,107.000,1.000,3.000,5.000,0
"03/07/08","04:03:50",14847.000,"cc",28273.764,6.00,6,0.100,13750.000,0.200,777.000,0.300,215.000,0.500,93.000,1.000,12.000,5.000,0
"03/07/08","04:03:56",14920.000,"cc",28325.721,6.00,6,0.100,13755.000,0.200,859.000,0.300,210.000,0.500,87.000,1.000,9.000,5.000,0
"03/07/08","04:04:02",15073.000,"cc",28313.514,6.00,6,0.100,13881.000,0.200,873.000,0.300,238.000,0.500,74.000,1.000,7.000,5.000,0
"03/07/08","04:04:08",14985.000,"cc",28340.457,6.00,6,0.100,13808.000,0.200,861.000,0.300,230.000,0.500,83.000,1.000,3.000,5.000,0
"03/07/08","04:04:14",14853.000,"cc",28326.807,6.00,6,0.100,13583.000,0.200,951.000,0.300,233.000,0.500,80.000,1.000,6.000,5.000,0
"03/07/08","04:04:20",14639.000,"cc",28312.731,6.00,6,0.100,13499.000,0.200,796.000,0.300,238.000,0.500,98.000,1.000,8.000,5.000,0
"03/07/08","04:04:26",14703.000,"cc",28338.344,6.00,6,0.100,13529.000,0.200,848.000,0.300,212.000,0.500,103.000,1.000,11.000,5.000,0
"03/07/08","04:04:32",14797.000,"cc",28335.234,6.00,6,0.100,13622.000,0.200,833.000,0.300,243.000,0.500,89.000,1.000,10.000,5.000,0
"03/07/08","04:04:38",14940.000,"cc",28326.690,6.00,6,0.100,13780.000,0.200,820.000,0.300,232.000,0.500,102.000,1.000,6.000,5.000,0
"03/07/08","04:04:44",15094.000,"cc",28241.342,6.00,6,0.100,13954.000,0.200,801.000,0.300,226.000,0.500,104.000,1.000,9.000,5.000,0
"03/07/08","04:04:50",14728.000,"cc",28270.238,6.00,6,0.100,13502.000,0.200,850.000,0.300,246.000,0.500,119.000,1.000,11.000,5.000,0
"03/07/08","04:04:56",14771.000,"cc",28376.436,6.00,6,0.100,13575.000,0.200,855.000,0.300,231.000,0.500,102.000,1.000,8.000,5.000,0
"03/07/08","04:05:02",14654.000,"cc",28332.594,6.00,6,0.100,13531.000,0.200,836.000,0.300,208.000,0.500,75.000,1.000,4.000,5.000,0
"03/07/08","04:05:08",15151.000,"cc",28309.424,6.00,6,0.100,14046.000,0.200,825.000,0.300,198.000,0.500,76.000,1.000,6.000,5.000,0
"03/07/08","04:05:14",14681.000,"cc",28263.574,6.00,6,0.100,13538.000,0.200,831.000,0.300,216.000,0.500,92.000,1.000,4.000,5.000,0
"03/07/08","04:05:20",15155.000,"cc",28334.932,6.00,6,0.100,13865.000,0.200,907.000,0.300,269.000,0.500,107.000,1.000,7.000,5.000,0
"03/07/08","04:05:26",14666.000,"cc",28358.807,6.00,6,0.100,13532.000,0.200,785.000,0.300,241.000,0.500,103.000,1.000,5.000,5.000,0
"03/07/08","04:05:32",14846.000,"cc",28276.787,6.00,6,0.100,13698.000,0.200,826.000,0.300,231.000,0.500,85.000,1.000,6.000,5.000,0
"03/07/08","04:05:38",14881.000,"cc",28355.186,6.00,6,0.100,13661.000,0.200,904.000,0.300,227.000,0.500,82.000,1.000,7.000,5.000,0
"03/07/08","04:05:44",14724.000,"cc",28291.500,6.00,6,0.100,13590.000,0.200,796.000,0.300,219.000,0.500,110.000,1.000,9.000,5.000,0
"03/07/08","04:05:50",14823.000,"cc",28306.727,6.00,6,0.100,13733.000,0.200,806.000,0.300,194.000,0.500,83.000,1.000,7.000,5.000,0
"03/07/08","04:05:56",14962.000,"cc",28330.680,6.00,6,0.100,13773.000,0.200,853.000,0.300,244.000,0.500,89.000,1.000,3.000,5.000,0
"03/07/08","04:06:02",14767.000,"cc",28384.898,6.00,6,0.100,13660.000,0.200,842.000,0.300,208.000,0.500,53.000,1.000,4.000,5.000,0
"03/07/08","04:06:08",14731.000,"cc",28296.432,6.00,6,0.100,13639.000,0.200,797.000,0.300,213.000,0.500,80.000,1.000,2.000,5.000,0
"03/07/08","04:06:14",14861.000,"cc",28308.188,6.00,6,0.100,13719.000,0.200,871.000,0.300,207.000,0.500,56.000,1.000,8.000,5.000,0
"03/07/08","04:06:20",14948.000,"cc",28300.014,6.00,6,0.100,13845.000,0.200,784.000,0.300,231.000,0.500,88.000,1.000,0,5.000,0
"03/07/08","04:06:26",14767.000,"cc",28279.990,6.00,6,0.100,13710.000,0.200,766.000,0.300,210.000,0.500,78.000,1.000,3.000,5.000,0
"03/07/08","04:06:32",14799.000,"cc",28333.629,6.00,6,0.100,13690.000,0.200,830.000,0.300,204.000,0.500,74.000,1.000,1.000,5.000,0
"03/07/08","04:06:38",14807.000,"cc",28368.807,6.00,6,0.100,13709.000,0.200,806.000,0.300,205.000,0.500,82.000,1.000,5.000,5.000,0
"03/07/08","04:06:44",15016.000,"cc",28342.822,6.00,6,0.100,13871.000,0.200,853.000,0.300,202.000,0.500,84.000,1.000,6.000,5.000,0
"03/07/08","04:06:50",14970.000,"cc",28269.486,6.00,6,0.100,13789.000,0.200,874.000,0.300,215.000,0.500,84.000,1.000,8.000,5.000,0
"03/07/08","04:06:56",14686.000,"cc",28259.842,6.00,6,0.100,13644.000,0.200,793.000,0.300,188.000,0.500,59.000,1.000,2.000,5.000,0
"03/07/08","04:07:02",14759.000,"cc",28271.209,6.00,6,0.100,13636.000,0.200,828.000,0.300,220.000,0.500,66.000,1.000,9.000,5.000,0
"03/07/08","04:07:08",14487.000,"cc",28347.768,6.00,6,0.100,13430.000,0.200,802.000,0.300,176.000,0.500,73.000,1.000,6.000,5.000,0
"03/07/08","04:07:14",14844.000,"cc",28382.104,6.00,6,0.100,13775.000,0.200,830.000,0.300,177.000,0.500,60.000,1.000,2.000,5.000,0
"03/07/08","04:07:20",14899.000,"cc",28366.121,6.00,6,0.100,13728.000,0.200,916.000,0.300,181.000,0.500,70.000,1.000,4.000,5.000,0
"03/07/08","04:07:26",14780.000,"cc",28305.729,6.00,6,0.100,13573.000,0.200,892.000,0.300,214.000,0.500,95.000,1.000,6.000,5.000,0
"03/07/08","04:07:32",14592.000,"cc",28306.315,6.00,6,0.100,13518.000,0.200,833.000,0.300,185.000,0.500,52.000,1.000,4.000,5.000,0
"03/07/08","04:07:38",14808.000,"cc",28324.783,6.00,6,0.100,13688.000,0.200,831.000,0.300,223.000,0.500,63.000,1.000,3.000,5.000,0
"03/07/08","04:07:44",14780.000,"cc",28344.248,6.00,6,0.100,13673.000,0.200,832.000,0.300,208.000,0.500,64.000,1.000,3.000,5.000,0
"03/07/08","04:07:50",14765.000,"cc",28365.098,6.00,6,0.100,13711.000,0.200,787.000,0.300,194.000,0.500,69.000,1.000,4.000,5.000,0
"03/07/08","04:07:56",14593.000,"cc",28282.992,6.00,6,0.100,13545.000,0.200,771.000,0.300,194.000,0.500,79.000,1.000,4.000,5.000,0
"03/07/08","04:08:02",14888.000,"cc",28284.625,6.00,6,0.100,13725.000,0.200,867.000,0.300,199.000,0.500,87.000,1.000,10.000,5.000,0
"03/07/08","04:08:08",14752.000,"cc",28282.279,6.00,6,0.100,13671.000,0.200,789.000,0.300,196.000,0.500,91.000,1.000,5.000,5.000,0
"03/07/08","04:08:14",14796.000,"cc",28322.699,6.00,6,0.100,13616.000,0.200,890.000,0.300,189.000,0.500,95.000,1.000,6.000,5.000,0
"03/07/08","04:08:20",14663.000,"cc",28248.496,6.00,6,0.100,13600.000,0.200,805.000,0.300,192.000,0.500,64.000,1.000,2.000,5.000,0
"03/07/08","04:08:26",14778.000,"cc",28281.498,6.00,6,0.100,13680.000,0.200,828.000,0.300,178.000,0.500,89.000,1.000,3.000,5.000,0
"03/07/08","04:08:32",15257.000,"cc",28332.481,6.00,6,0.100,14062.000,0.200,881.000,0.300,218.000,0.500,93.000,1.000,3.000,5.000,0
"03/07/08","04:08:38",14624.000,"cc",28281.283,6.00,6,0.100,13489.000,0.200,850.000,0.300,202.000,0.500,77.000,1.000,6.000,5.000,0
"03/07/08","04:08:44",14744.000,"cc",28331.502,6.00,6,0.100,13691.000,0.200,760.000,0.300,214.000,0.500,72.000,1.000,7.000,5.000,0
"03/07/08","04:08:50",14540.000,"cc",28371.309,6.00,6,0.100,13500.000,0.200,742.000,0.300,198.000,0.500,90.000,1.000,10.000,5.000,0
"03/07/08","04:08:56",14942.000,"cc",28255.361,6.00,6,0.100,13701.000,0.200,899.000,0.300,232.000,0.500,104.000,1.000,6.000,5.000,0
"03/07/08","04:09:02",14976.000,"cc",28279.930,6.00,6,0.100,13793.000,0.200,849.000,0.300,224.000,0.500,105.000,1.000,5.000,5.000,0
"03/07/08","04:09:08",14859.000,"cc",28325.506,6.00,6,0.100,13716.000,0.200,869.000,0.300,211.000,0.500,59.000,1.000,4.000,5.000,0
"03/07/08","04:09:14",14755.000,"cc",28421.920,6.00,6,0.100,13693.000,0.200,796.000,0.300,197.000,0.500,63.000,1.000,6.000,5.000,0
"03/07/08","04:09:20",14798.000,"cc",28356.941,6.00,6,0.100,13696.000,0.200,834.000,0.300,216.000,0.500,52.000,1.000,0,5.000,0
"03/07/08","04:09:26",14864.000,"cc",28298.494,6.00,6,0.100,13769.000,0.200,840.000,0.300,176.000,0.500,74.000,1.000,5.000,5.000,0
"03/07/08","04:09:32",14473.000,"cc",28291.072,6.00,6,0.100,13395.000,0.200,773.000,0.300,227.000,0.500,64.000,1.000,14.000,5.000,0
"03/07/08","04:09:38",14927.000,"cc",28355.311,6.00,6,0.100,13784.000,0.200,858.000,0.300,192.000,0.500,85.000,1.000,8.000,5.000,0
"03/07/08","04:09:44",14798.000,"cc",28273.539,6.00,6,0.100,13721.000,0.200,798.000,0.300,202.000,0.500,77.000,1.000,0,5.000,0
"03/07/08","04:09:50",14706.000,"cc",28310.660,6.00,6,0.100,13531.000,0.200,877.000,0.300,220.000,0.500,70.000,1.000,8.000,5.000,0
"03/07/08","04:09:56",14827.000,"cc",28306.520,6.00,6,0.100,13629.000,0.200,891.000,0.300,217.000,0.500,87.000,1.000,3.000,5.000,0
"03/07/08","04:10:02",14755.000,"cc",28306.969,6.00,6,0.100,13661.000,0.200,836.000,0.300,178.000,0.500,76.000,1.000,4.000,5.000,0
"03/07/08","04:10:08",14250.000,"cc",28367.674,6.00,6,0.100,13188.000,0.200,818.000,0.300,181.000,0.500,60.000,1.000,3.000,5.000,0
"03/07/08","04:10:14",14453.000,"cc",28294.684,6.00,6,0.100,13422.000,0.200,766.000,0.300,185.000,0.500,76.000,1.000,4.000,5.000,0
"03/07/08","04:10:20",14698.000,"cc",28345.164,6.00,6,0.100,13563.000,0.200,823.000,0.300,202.000,0.500,104.000,1.000,6.000,5.000,0
"03/07/08","04:10:26",14835.000,"cc",28316.729,6.00,6,0.100,13723.000,0.200,856.000,0.300,183.000,0.500,67.000,1.000,6.000,5.000,0
"03/07/08","04:10:32",14576.000,"cc",28323.910,6.00,6,0.100,13534.000,0.200,787.000,0.300,183.000,0.500,66.000,1.000,6.000,5.000,0
"03/07/08","04:10:38",14496.000,"cc",28309.047,6.00,6,0.100,13398.000,0.200,796.000,0.300,209.000,0.500,86.000,1.000,7.000,5.000,0
"03/07/08","04:10:44",14660.000,"cc",28316.650,6.00,6,0.100,13572.000,0.200,819.000,0.300,170.000,0.500,92.000,1.000,7.000,5.000,0
"03/07/08","04:10:50",14640.000,"cc",28302.311,6.00,6,0.100,13495.000,0.200,824.000,0.300,193.000,0.500,115.000,1.000,13.000,5.000,0
"03/07/08","04:10:56",14606.000,"cc",28326.371,6.00,6,0.100,13486.000,0.200,825.000,0.300,206.000,0.500,82.000,1.000,7.000,5.000,0
"03/07/08","04:11:02",14561.000,"cc",28308.111,6.00,6,0.100,13418.000,0.200,807.000,0.300,238.000,0.500,85.000,1.000,13.000,5.000,0
"03/07/08","04:11:08",14332.000,"cc",28312.719,6.00,6,0.100,13318.000,0.200,754.000,0.300,174.000,0.500,78.000,1.000,8.000,5.000,0
"03/07/08","04:11:14",14660.000,"cc",28322.205,6.00,6,0.100,13543.000,0.200,818.000,0.300,201.000,0.500,90.000,1.000,8.000,5.000,0
"03/07/08","04:11:20",14438.000,"cc",28342.631,6.00,6,0.100,13362.000,0.200,798.000,0.300,189.000,0.500,85.000,1.000,4.000,5.000,0
"03/07/08","04:11:26",14605.000,"cc",28265.221,6.00,6,0.100,13490.000,0.200,844.000,0.300,181.000,0.500,83.000,1.000,7.000,5.000,0
"03/07/08","04:11:32",14555.000,"cc",28375.131,6.00,6,0.100,13374.000,0.200,861.000,0.300,206.000,0.500,94.000,1.000,20.000,5.000,0
"03/07/08","04:11:38",14399.000,"cc",28291.385,6.00,6,0.100,13288.000,0.200,804.000,0.300,200.000,0.500,96.000,1.000,11.000,5.000,0
"03/07/08","04:11:44",14499.000,"cc",28302.904,6.00,6,0.100,13396.000,0.200,814.000,0.300,190.000,0.500,93.000,1.000,6.000,5.000,0
"03/07/08","04:11:50",14265.000,"cc",28382.734,6.00,6,0.100,13168.000,0.200,786.000,0.300,213.000,0.500,91.000,1.000,7.000,5.000,0
"03/07/08","04:11:56",14366.000,"cc",28296.377,6.00,6,0.100,13209.000,0.200,853.000,0.300,203.000,0.500,92.000,1.000,9.000,5.000,0
"03/07/08","04:12:02",14464.000,"cc",28317.861,6.00,6,0.100,13244.000,0.200,856.000,0.300,225.000,0.500,129.000,1.000,10.000,5.000,0
"03/07/08","04:12:08",14398.000,"cc",28316.981,6.00,6,0.100,13235.000,0.200,855.000,0.300,204.000,0.500,98.000,1.000,6.000,5.000,0
"03/07/08","04:12:14",14735.000,"cc",28354.018,6.00,6,0.100,13563.000,0.200,841.000,0.300,212.000,0.500,107.000,1.000,12.000,5.000,0
"03/07/08","04:12:20",14533.000,"cc",28330.006,6.00,6,0.100,13374.000,0.200,850.000,0.300,199.000,0.500,98.000,1.000,12.000,5.000,0
"03/07/08","04:12:26",14404.000,"cc",28324.830,6.00,6,0.100,13257.000,0.200,833.000,0.300,182.000,0.500,121.000,1.000,11.000,5.000,0
"03/07/08","04:12:32",14687.000,"cc",28264.783,6.00,6,0.100,13521.000,0.200,845.000,0.300,199.000,0.500,117.000,1.000,5.000,5.000,0
"03/07/08","04:12:38",14552.000,"cc",28347.879,6.00,6,0.100,13408.000,0.200,827.000,0.300,208.000,0.500,98.000,1.000,11.000,5.000,0
"03/07/08","04:12:44",14426.000,"cc",28310.008,6.00,6,0.100,13268.000,0.200,825.000,0.300,223.000,0.500,104.000,1.000,6.000,5.000,0
"03/07/08","04:12:50",14629.000,"cc",28349.566,6.00,6,0.100,13433.000,0.200,876.000,0.300,214.000,0.500,93.000,1.000,13.000,5.000,0
"03/07/08","04:12:56",14548.000,"cc",28299.762,6.00,6,0.100,13353.000,0.200,872.000,0.300,214.000,0.500,96.000,1.000,13.000,5.000,0
"03/07/08","04:13:02",14684.000,"cc",28299.834,6.00,6,0.100,13459.000,0.200,873.000,0.300,234.000,0.500,107.000,1.000,11.000,5.000,0
"03/07/08","04:13:08",14591.000,"cc",28316.803,6.00,6,0.100,13373.000,0.200,901.000,0.300,197.000,0.500,112.000,1.000,8.000,5.000,0
"03/07/08","04:13:14",14609.000,"cc",28264.477,6.00,6,0.100,13431.000,0.200,841.000,0.300,217.000,0.500,109.000,1.000,11.000,5.000,0
"03/07/08","04:13:20",14547.000,"cc",28295.797,6.00,6,0.100,13338.000,0.200,869.000,0.300,225.000,0.500,109.000,1.000,6.000,5.000,0
"03/07/08","04:13:26",14422.000,"cc",28334.609,6.00,6,0.100,13302.000,0.200,833.000,0.300,168.000,0.500,107.000,1.000,12.000,5.000,0
"03/07/08","04:13:32",14630.000,"cc",28323.092,6.00,6,0.100,13462.000,0.200,847.000,0.300,208.000,0.500,108.000,1.000,5.000,5.000,0
"03/07/08","04:13:38",14677.000,"cc",28380.984,6.00,6,0.100,13563.000,0.200,827.000,0.300,194.000,0.500,82.000,1.000,11.000,5.000,0
"03/07/08","04:13:44",14364.000,"cc",28335.943,6.00,6,0.100,13227.000,0.200,812.000,0.300,209.000,0.500,108.000,1.000,8.000,5.000,0
"03/07/08","04:13:50",14734.000,"cc",28344.252,6.00,6,0.100,13606.000,0.200,814.000,0.300,226.000,0.500,84.000,1.000,4.000,5.000,0
"03/07/08","04:13:56",14653.000,"cc",28263.104,6.00,6,0.100,13402.000,0.200,918.000,0.300,197.000,0.500,121.000,1.000,15.000,5.000,0
"03/07/08","04:14:02",14774.000,"cc",28323.184,6.00,6,0.100,13602.000,0.200,843.000,0.300,194.000,0.500,122.000,1.000,13.000,5.000,0
"03/07/08","04:14:08",14824.000,"cc",28350.191,6.00,6,0.100,13601.000,0.200,869.000,0.300,196.000,0.500,138.000,1.000,20.000,5.000,0
"03/07/08","04:14:14",14649.000,"cc",28381.201,6.00,6,0.100,13492.000,0.200,882.000,0.300,172.000,0.500,93.000,1.000,10.000,5.000,0
"03/07/08","04:14:20",14896.000,"cc",28258.746,6.00,6,0.100,13727.000,0.200,855.000,0.300,191.000,0.500,110.000,1.000,13.000,5.000,0
"03/07/08","04:14:26",15103.000,"cc",28318.613,6.00,6,0.100,13866.000,0.200,879.000,0.300,240.000,0.500,107.000,1.000,11.000,5.000,0
"03/07/08","04:14:32",14901.000,"cc",28278.617,6.00,6,0.100,13707.000,0.200,891.000,0.300,199.000,0.500,101.000,1.000,3.000,5.000,0
"03/07/08","04:14:38",14764.000,"cc",28283.910,6.00,6,0.100,13657.000,0.200,806.000,0.300,202.000,0.500,89.000,1.000,10.000,5.000,0
"03/07/08","04:14:44",14751.000,"cc",28361.920,6.00,6,0.100,13552.000,0.200,887.000,0.300,204.000,0.500,94.000,1.000,14.000,5.000,0
"03/07/08","04:14:50",15149.000,"cc",28256.000,6.00,6,0.100,13905.000,0.200,895.000,0.300,224.000,0.500,116.000,1.000,9.000,5.000,0
"03/07/08","04:14:56",14902.000,"cc",28279.809,6.00,6,0.100,13700.000,0.200,895.000,0.300,205.000,0.500,96.000,1.000,6.000,5.000,0
"03/07/08","04:15:02",15079.000,"cc",28334.891,6.00,6,0.100,13872.000,0.200,891.000,0.300,212.000,0.500,90.000,1.000,14.000,5.000,0
"03/07/08","04:15:08",14905.000,"cc",28322.797,6.00,6,0.100,13753.000,0.200,867.000,0.300,185.000,0.500,95.000,1.000,5.000,5.000,0
"03/07/08","04:15:14",14931.000,"cc",28393.520,6.00,6,0.100,13717.000,0.200,887.000,0.300,211.000,0.500,104.000,1.000,12.000,5.000,0
"03/07/08","04:15:20",14922.000,"cc",28263.979,6.00,6,0.100,13667.000,0.200,915.000,0.300,218.000,0.500,106.000,1.000,16.000,5.000,0
"03/07/08","04:15:26",14907.000,"cc",28382.344,6.00,6,0.100,13701.000,0.200,909.000,0.300,213.000,0.500,80.000,1.000,4.000,5.000,0
"03/07/08","04:15:32",14917.000,"cc",28302.549,6.00,6,0.100,13679.000,0.200,906.000,0.300,217.000,0.500,103.000,1.000,12.000,5.000,0
"03/07/08","04:15:38",15031.000,"cc",28316.764,6.00,6,0.100,13768.000,0.200,861.000,0.300,254.000,0.500,128.000,1.000,20.000,5.000,0
"03/07/08","04:15:44",15228.000,"cc",28358.043,6.00,6,0.100,14059.000,0.200,869.000,0.300,208.000,0.500,86.000,1.000,6.000,5.000,0
"03/07/08","04:15:50",15133.000,"cc",28286.322,6.00,6,0.100,13927.000,0.200,907.000,0.300,195.000,0.500,92.000,1.000,12.000,5.000,0
"03/07/08","04:15:56",15058.000,"cc",28296.928,6.00,6,0.100,13932.000,0.200,864.000,0.300,182.000,0.500,76.000,1.000,4.000,5.000,0
"03/07/08","04:16:02",15145.000,"cc",28351.736,6.00,6,0.100,13973.000,0.200,888.000,0.300,204.000,0.500,75.000,1.000,5.000,5.000,0
"03/07/08","04:16:08",15259.000,"cc",28341.121,6.00,6,0.100,14071.000,0.200,886.000,0.300,211.000,0.500,88.000,1.000,3.000,5.000,0
"03/07/08","04:16:14",15373.000,"cc",28225.789,6.00,6,0.100,14121.000,0.200,911.000,0.300,222.000,0.500,109.000,1.000,10.000,5.000,0
"03/07/08","04:16:20",15203.000,"cc",28344.535,6.00,6,0.100,14001.000,0.200,894.000,0.300,222.000,0.500,84.000,1.000,2.000,5.000,0
"03/07/08","04:16:26",15329.000,"cc",28307.398,6.00,6,0.100,14126.000,0.200,890.000,0.300,213.000,0.500,88.000,1.000,12.000,5.000,0
"03/07/08","04:16:32",15207.000,"cc",28287.820,6.00,6,0.100,13913.000,0.200,914.000,0.300,255.000,0.500,114.000,1.000,11.000,5.000,0
"03/07/08","04:16:38",15446.000,"cc",28303.197,6.00,6,0.100,14173.000,0.200,929.000,0.300,231.000,0.500,105.000,1.000,8.000,5.000,0
"03/07/08","04:16:44",15269.000,"cc",28345.072,6.00,6,0.100,14017.000,0.200,950.000,0.300,206.000,0.500,89.000,1.000,7.000,5.000,0
"03/07/08","04:16:50",15272.000,"cc",28360.008,6.00,6,0.100,14097.000,0.200,869.000,0.300,189.000,0.500,107.000,1.000,10.000,5.000,0
"03/07/08","04:16:56",15078.000,"cc",28303.102,6.00,6,0.100,13939.000,0.200,871.000,0.300,183.000,0.500,80.000,1.000,5.000,5.000,0
"03/07/08","04:17:02",15484.000,"cc",28369.340,6.00,6,0.100,14277.000,0.200,903.000,0.300,204.000,0.500,93.000,1.000,7.000,5.000,0